Content
SEND FEEDBACK

Daily
Averages
Monthly
Summary
United States of America

WEBSTER CITY, IOWA


Home > North America > United States > Iowa
Elevation: 1143 feet     Latitude: 42 03N     Longitude: 093 50W

WEATHER
 
SELECT A DAY
Number of Records: 414,294;   Date Range: 2/11/95 - 7/7/14
 
SHARE

PRINT THIS DATA

[ ← Previous Day ]
WEATHER ALMANAC - JANUARY 23, 2013
[ Next Day → ]
[ °C ]   °F
Weather ElementAverageHighLow
Temperature15 °F25.3 °F (12:55 pm)2.3 °F (11:15 pm)
Dewpoint6.1 °F15.6 °F (12:35 pm)-5.8 °F (10:55 pm)
Humidity68 %80 % (7:55 am)61 % (3:55 pm)
Barometer30.26 in30.52 in (11:35 pm)30.14 in (5:35 am)
Wind Speed13.2 mph21.9 mph (5:55 pm)
Wind Gust31.1 mph (7:35 pm)
Weather ElementAverage
Visibility10 mi
Wind DirectionWNW (281.3 °)

Weather ElementTotal
Precipitation---
Heating Degree Days51.2 (Base 65)
Averaged from 69 records on January 23, 2013
WEATHER CONDITIONS BREAKOUT
WIND DIRECTION BREAKOUT
WEATHER BY HOUR - JANUARY 23, 2013
[ °C ]   °F
Local TimeTemperatureDewpointHumidityBarometerVisibilityWind DirectionWind SpeedGust SpeedPrecipitationEventsConditions
12:35 AM14.9 °F5.2 °F65 %30.24 in10.0 miSouth (190°)6.9 mphOvercast
12:55 AM15.1 °F5.9 °F67 %30.23 in10.0 miSouth (190°)5.8 mphOvercast
1:15 AM14.9 °F5.9 °F68 %30.23 in10.0 miSouth (190°)6.9 mphOvercast
1:35 AM14.9 °F5.4 °F66 %30.22 in10.0 miSSW (200°)6.9 mphOvercast
1:55 AM15.1 °F5.5 °F66 %30.22 in10.0 miSouth (190°)9.2 mphOvercast
2:15 AM14.9 °F5.4 °F66 %30.23 in10.0 miSouth (190°)10.4 mphOvercast
2:35 AM14.9 °F5.5 °F66 %30.23 in10.0 miSouth (190°)8.1 mphOvercast
2:55 AM14.9 °F5.4 °F66 %30.22 in10.0 miSouth (190°)9.2 mphOvercast
3:15 AM14.9 °F5.5 °F66 %30.21 in10.0 miSouth (180°)8.1 mphOvercast
3:35 AM14.9 °F5.4 °F66 %30.20 in10.0 miSouth (180°)8.1 mphOvercast
3:55 AM14.9 °F5.4 °F66 %30.20 in10.0 miSouth (190°)8.1 mphOvercast
4:15 AM14.5 °F5.7 °F68 %30.19 in10.0 miSouth (190°)8.1 mphOvercast
4:35 AM14.2 °F5.5 °F69 %30.18 in10.0 miSSW (200°)10.4 mphOvercast
4:55 AM13.3 °F5.0 °F70 %30.17 in10.0 miSouth (190°)11.5 mphScattered Clouds
5:15 AM12.4 °F4.8 °F72 %30.15 in10.0 miSouth (190°)11.5 mph16.1 mphClear
5:35 AM12.0 °F4.8 °F73 %30.14 in10.0 miSouth (190°)9.2 mphClear
5:55 AM12.0 °F5.0 °F73 %30.16 in10.0 miSSW (210°)9.2 mphClear
6:15 AM12.0 °F5.0 °F73 %30.15 in10.0 miSSW (210°)9.2 mphClear
6:35 AM11.7 °F5.0 °F75 %30.15 in10.0 miSSW (210°)8.1 mphClear
6:55 AM11.3 °F5.0 °F76 %30.15 in10.0 miSW (220°)5.8 mphClear
7:15 AM11.1 °F5.2 °F77 %30.16 in10.0 miSW (220°)5.8 mphClear
7:55 AM11.3 °F6.1 °F80 %30.16 in10.0 miSW (230°)5.8 mphClear
8:15 AM10.9 °F5.9 °F80 %30.16 in10.0 miWSW (240°)8.1 mphClear
8:35 AM12.6 °F7.0 °F78 %30.16 in10.0 miWSW (240°)6.9 mphClear
8:55 AM14.0 °F7.7 °F76 %30.16 in10.0 miWest (260°)6.9 mphClear
9:15 AM14.9 °F8.2 °F75 %30.16 in10.0 miWest (260°)8.1 mphClear
9:35 AM16.2 °F9.0 °F73 %30.17 in10.0 miWest (270°)9.2 mphClear
9:55 AM17.8 °F10.2 °F72 %30.18 in10.0 miWNW (290°)12.7 mphClear
10:15 AM18.5 °F10.8 °F72 %30.19 in10.0 miWNW (300°)10.4 mph17.3 mphClear
10:35 AM19.4 °F11.8 °F72 %30.20 in10.0 miWNW (290°)10.4 mph17.3 mphClear
10:55 AM21.2 °F13.1 °F71 %30.20 in10.0 miWNW (300°)10.4 mphClear
11:15 AM21.9 °F13.5 °F70 %30.21 in10.0 miNNW (330°)10.4 mphClear
11:35 AM22.6 °F14.2 °F70 %30.21 in10.0 miNW (320°)11.5 mphClear
11:55 AM23.2 °F14.9 °F71 %30.21 in10.0 miNNW (330°)16.1 mphClear
12:15 PM23.7 °F14.7 °F69 %30.21 in10.0 miNW (320°)17.3 mphClear
12:35 PM24.6 °F15.6 °F69 %30.21 in10.0 miNNW (330°)15.0 mphClear
12:55 PM25.3 °F15.4 °F66 %30.21 in10.0 miNW (310°)11.5 mphClear
1:15 PM25.3 °F15.4 °F66 %30.20 in10.0 miNNW (340°)13.8 mphClear
1:35 PM25.0 °F14.7 °F65 %30.20 in10.0 miNW (320°)17.3 mph23.0 mphClear
1:55 PM24.4 °F14.0 °F65 %30.21 in10.0 miNW (310°)15.0 mph21.9 mphClear
2:15 PM25.2 °F14.7 °F65 %30.21 in10.0 miNW (320°)17.3 mph21.9 mphScattered Clouds
2:35 PM24.4 °F13.6 °F64 %30.22 in10.0 miNW (310°)17.3 mph23.0 mphClear
2:55 PM24.1 °F13.8 °F65 %30.23 in10.0 miNW (320°)17.3 mph21.9 mphClear
3:15 PM25.0 °F14.2 °F64 %30.24 in10.0 miNW (310°)13.8 mph24.2 mphScattered Clouds
3:35 PM23.5 °F12.7 °F63 %30.25 in10.0 miNW (310°)15.0 mph23.0 mphScattered Clouds
3:55 PM22.6 °F11.1 °F61 %30.26 in10.0 miNW (310°)17.3 mph24.2 mphClear
4:15 PM22.6 °F11.1 °F61 %30.26 in10.0 miNW (310°)16.1 mph24.2 mphClear
4:35 PM22.1 °F10.4 °F61 %30.28 in10.0 miNW (320°)13.8 mph20.7 mphScattered Clouds
4:55 PM20.7 °F10.0 °F64 %30.29 in10.0 miNW (320°)15.0 mph21.9 mphScattered Clouds
5:15 PM19.2 °F8.4 °F63 %30.31 in10.0 miNNW (330°)15.0 mph23.0 mphScattered Clouds
5:35 PM17.6 °F8.2 °F67 %30.32 in10.0 miNNW (340°)16.1 mph26.5 mphScattered Clouds
5:55 PM16.3 °F6.3 °F65 %30.33 in10.0 miNNW (330°)21.9 mphClear
6:15 PM14.5 °F4.1 °F63 %30.36 in10.0 miNNW (330°)18.4 mph26.5 mphClear
6:35 PM12.7 °F2.3 °F63 %30.36 in10.0 miNNW (340°)20.7 mph27.6 mphClear
6:55 PM11.3 °F1.2 °F64 %30.37 in10.0 miNNW (340°)21.9 mph28.8 mphClear
7:15 PM9.9 °F0.0 °F64 %30.38 in10.0 miNNW (330°)20.7 mph28.8 mphClear
7:35 PM8.6 °F-0.9 °F65 %30.39 in10.0 miNNW (330°)21.9 mph31.1 mphClear
7:55 PM7.7 °F-1.7 °F66 %30.40 in10.0 miNNW (340°)21.9 mph27.6 mphClear
8:15 PM6.4 °F-2.7 °F66 %30.41 in10.0 miNNW (340°)17.3 mph28.8 mphClear
8:35 PM5.7 °F-4.0 °F64 %30.42 in10.0 miNorth (350°)20.7 mph26.5 mphClear
8:55 PM5.0 °F-5.1 °F63 %30.43 in10.0 miNorth (350°)20.7 mph28.8 mphClear
9:15 PM4.6 °F-4.9 °F65 %30.44 in10.0 miNorth (350°)20.7 mph28.8 mphClear
9:35 PM3.9 °F-5.4 °F65 %30.45 in10.0 miNorth (350°)19.6 mph29.9 mphClear
9:55 PM3.6 °F-5.3 °F67 %30.45 in10.0 miNorth (350°)17.3 mph27.6 mphClear
10:15 PM3.2 °F-5.1 °F68 %30.45 in10.0 miNorth (350°)17.3 mphClear
10:35 PM3.0 °F-5.4 °F68 %30.46 in10.0 miNorth (360°)16.1 mph25.3 mphClear
10:55 PM2.7 °F-5.8 °F68 %30.49 in10.0 miNorth (350°)16.1 mph20.7 mphClear
11:15 PM2.3 °F-5.8 °F69 %30.50 in10.0 miNorth (360°)15.0 mphClear
11:35 PM2.3 °F-5.8 °F69 %30.52 in10.0 miNorth (360°)12.7 mph19.6 mphClear
Hourly data recorded from KBNW, located miles away from Webster City, Iowa







STORIES FROM OUR PARTNERS